Location: Bergnershof
(48.9468°N, 10.9431°E)
Time: 23:59:33
(UTC+00:00)

FALCON 9 DEB - Pass Details

Date: 03 March 2021
Orbit: 371 x 387 km, 53.0° (Epoch: 13 April)

Event Time Altitude Azimuth Distance (km) Brightness Sun altitude
Rises 19:19:04 0° 292° (WNW) 2,295 8.3 -22.9°
Reaches altitude 10° 19:21:10 10° 297° (WNW) 1,436 6.8 -23.2°
Enters shadow 19:23:15 33° 319° (NW) 683 4.5 -23.6°
